SCP
2 1 0 0 0 0 0 0 1 1 1 1 1 1 0 0 0 0 0 0 0 0 0 0 0 0 0 0 0 0 0 0 0 0 0 0 0 0 0 -0 -0 -0 -0
2 0 0 0 0 0 0 0 1 1 1 1 1 1 1 1 0 0 0 1 0 0 0 0 0 0 0 0 0 0 0 0 0 0 0 0 0 -0 -0 0 -0 -0 -0
1 1 0 0 0 0 0 1 1 1 2 1 1 1 1 0 1 1 0 0 0 0 0 0 0 0 0 0 0 0 0 0 0 0 0 0 -0 -0 0 -0 -0 -0 -0
1 1 0 0 0 1 1 0 0 1 1 1 1 0 0 0 0 0 0 0 0 0 0 0 0 0 0 0 0 0 0 0 0 0 0 0 0 0 0 0 0 -0 -0
1 1 1 1 1 0 0 0 0 2 1 1 1 1 0 0 0 0 0 0 0 0 0 0 0 0 0 0 0 0 0 0 0 0 0 0 0 0 0 0 0 0 0
1 1 1 1 1 0 0 0 1 1 1 1 1 1 0 0 0 0 0 0 0 0 0 0 0 0 0 0 0 0 0 0 0 0 0 0 0 0 0 0 0 -0 -0
1 1 1 1 1 0 0 1 1 1 1 1 0 0 0 0 0 0 0 0 0 0 0 0 0 0 0 0 0 0 0 0 0 0 0 0 0 0 0 0 -0 -0 -0
1 1 1 1 1 0 1 1 1 1 1 0 0 0 0 0 0 0 0 0 0 0 0 0 0 0 0 0 0 0 0 0 0 0 0 0 0 0 0 -0 -0 -0 -0
1 1 1 1 1 1 1 1 1 1 1 0 0 0 0 0 0 0 0 0 0 0 0 0 0 0 0 0 0 0 0 0 0 0 0 0 0 0 -0 -0 -0 -0 -0
1 1 1 1 1 1 1 1 1 1 0 0 0 0 0 0 0 0 0 0 0 0 0 0 0 0 0 0 0 0 0 0 0 0 0 0 0 0 -0 -0 -0 -0 0
1 1 1 1 1 1 1 1 1 0 0 0 0 0 0 0 0 0 0 0 0 0 0 0 0 0 0 0 0 0 0 0 0 0 0 0 0 0 -0 0 -0 -0 0
2 1 1 1 1 1 1 1 0 0 0 0 0 0 0 0 0 0 0 0 0 0 0 0 0 0 0 0 0 0 0 0 0 0 0 0 0 -0 -0 -0 0 -0 -0
1 1 1 1 1 1 0 0 0 0 0 0 0 0 0 0 0 0 0 0 0 0 0 0 0 0 0 0 0 0 0 0 0 0 0 0 0 0 0 -0 0 -0 -0
1 1 1 1 1 0 0 0 0 0 0 0 0 0 0 0 0 0 0 0 0 0 0 0 0 0 0 0 0 0 0 0 0 0 0 0 0 0 0 0 -0 -0 -0
1 1 1 1 0 0 0 0 0 0 0 0 0 0 0 0 0 0 0 0 0 0 0 0 0 0 0 0 0 0 0 0 0 0 0 0 0 0 0 -0 0 0 -0
1 1 0 0 0 0 0 0 0 0 0 0 0 0 0 0 0 0 0 0 0 0 0 0 0 0 0 0 0 0 0 0 0 0 0 0 0 0 0 0 0 -0 -0
0 0 0 0 0 0 0 0 0 0 0 0 0 0 0 -0 -0 -0 0 0 0 0 0 0 0 0 0 0 0 0 0 0 0 0 0 0 0 0 0 0 -0 -0 -0
0 0 0 0 0 0 0 0 0 0 0 0 0 0 0 0 -0 0 0 -0 0 0 0 0 0 0 0 0 0 0 0 0 0 0 -0 -0 -0 0 0 0 -0 -0 -0
0 0 0 0 0 0 0 0 0 0 0 0 0 0 0 -0 -0 0 -0 0 0 0 0 0 0 0 0 0 0 0 0 0 0 0 0 -0 -0 0 0 -0 0 -0 0
0 0 0 0 0 0 0 0 0 0 0 0 0 0 0 0 -0 -0 -0 -0 0 0 0 0 0 0 0 0 0 0 0 0 0 0 0 0 -0 0 0 0 0 0 -0
0 0 0 0 0 0 0 0 0 0 0 -0 0 0 0 -0 -0 -0 0 0 -0 -0 0 0 0 0 0 0 0 0 0 0 0 0 0 0 0 0 0 0 0 -0 -0
0 0 0 0 -0 0 0 0 0 0 0 -0 0 0 -0 -0 0 0 0 0 -0 -0 -0 0 0 0 0 0 0 0 0 0 0 0 0 0 0 0 0 0 0 -0 0
0 0 -0 0 0 0 0 0 0 0 -0 0 0 0 0 -0 0 0 0 0 0 -0 0 -0 0 0 0 0 0 0 0 0 0 0 0 0 0 0 0 0 0 -0 -0
0 -0 -0 0 0 0 0 0 0 0 0 0 0 0 0 0 0 0 0 0 0 0 0 -0 0 -0 0 0 0 0 0 0 0 0 0 0 0 0 -0 -0 0 0 -0
0 0 0 0 0 0 0 0 0 0 0 0 0 0 0 0 -0 -0 0 0 0 0 0 0 0 -0 0 0 0 0 0 0 0 0 0 0 0 -0 -0 0 -0 -0 -0
0 0 -0 -0 0 0 0 0 0 0 0 0 0 0 0 0 -0 -0 0 0 0 0 0 0 0 0 0 0 0 0 0 0 0 0 0 0 -0 -0 0 0 -0 0 -0
Wind_Speed_500mb
59 52 51 48 44 39 36 32 30 30 28 27 26 28 26 25 25 21 18 24 13 11 14 26 26 27 27 28 27 24 23 23 20 18 33 20 21 30 27 27 26 28 35
56 50 49 48 47 41 38 33 32 29 30 29 28 31 28 28 29 24 20 22 21 13 6 17 22 27 26 25 27 26 21 21 24 21 26 37 29 35 28 28 27 27 32
51 52 45 46 46 44 39 35 31 30 31 30 32 26 27 30 30 33 28 24 21 19 14 10 15 22 30 29 29 26 21 22 27 27 32 37 33 40 30 26 29 29 26
45 47 43 44 43 43 37 34 32 33 31 27 29 24 30 33 35 32 30 29 26 23 18 18 19 22 26 31 32 29 23 24 30 30 38 35 34 31 29 25 26 29 22
37 40 37 38 41 39 37 33 33 34 25 22 26 34 32 35 35 33 36 32 36 29 24 24 21 23 28 32 33 28 26 25 31 34 35 34 33 31 25 26 24 23 18
32 37 34 34 37 34 34 33 37 23 22 23 26 28 31 34 34 34 35 39 36 30 28 23 14 17 23 33 32 27 26 23 31 34 36 29 30 28 31 26 21 21 22
32 34 31 33 30 33 32 34 25 23 23 26 22 24 24 24 29 27 30 31 35 36 32 27 21 21 19 31 31 25 26 25 30 32 35 34 30 33 32 25 25 24 23
32 32 34 28 27 28 32 30 28 22 22 23 16 13 18 15 19 22 22 19 23 29 29 28 24 26 25 22 23 21 26 28 30 31 34 36 30 30 32 27 27 25 27
33 34 34 29 29 29 30 29 27 24 19 26 23 19 11 8 8 10 20 20 23 26 24 30 26 25 30 27 20 16 24 27 27 32 33 36 31 29 30 27 29 30 33
35 37 37 30 28 28 30 27 23 22 21 16 18 22 22 13 7 7 10 15 21 21 24 22 24 29 26 29 23 20 18 25 28 32 32 35 35 29 30 33 30 25 35
35 34 35 33 33 28 31 24 22 21 18 20 19 15 20 16 17 11 8 11 16 19 17 27 24 30 30 27 21 18 16 22 28 31 32 31 35 30 29 30 28 30 27
31 34 32 32 29 29 29 24 24 21 19 21 20 20 15 13 18 16 11 8 16 20 18 20 25 26 31 30 27 30 22 21 30 33 36 38 35 36 22 33 32 34 29
29 35 34 32 28 27 25 23 22 18 19 19 18 17 18 18 13 15 13 7 8 12 14 19 22 24 28 27 31 31 27 27 32 35 35 39 37 45 38 33 37 38 32
27 31 30 26 24 22 21 21 16 17 19 17 19 18 18 18 19 15 11 11 11 10 11 14 18 20 26 29 28 33 32 25 32 35 37 39 44 48 36 32 40 36 36
27 26 25 23 23 20 20 19 17 16 17 19 21 20 21 16 25 21 14 6 9 9 14 14 13 22 22 27 26 33 31 30 31 35 40 44 37 50 36 31 40 43 43
25 24 23 21 20 20 20 19 16 16 19 17 14 19 19 18 34 25 21 17 7 9 10 15 19 19 22 25 28 31 31 34 32 38 43 40 45 45 33 40 49 49 40
22 19 19 19 20 21 21 17 18 20 16 15 15 15 14 17 24 30 26 20 20 15 14 15 19 20 21 26 31 33 32 36 36 40 44 47 41 42 40 47 55 54 51
19 19 20 20 21 20 19 17 18 16 17 13 14 11 15 20 20 28 23 25 22 16 17 21 22 22 23 28 33 35 38 38 42 45 46 41 41 45 51 59 60 36 36
22 20 21 21 20 20 18 18 16 16 13 13 11 11 15 20 24 26 24 22 18 18 22 21 21 28 32 34 33 30 44 46 45 42 42 50 41 39 57 53 37 40 36
23 22 21 20 20 20 19 16 15 14 11 9 7 4 10 17 23 25 21 19 24 25 22 24 27 31 35 37 37 45 48 46 43 46 53 59 46 63 48 41 44 42 32
23 23 23 22 20 18 16 16 14 12 12 11 6 5 5 13 24 26 19 19 30 27 25 18 27 33 42 42 51 55 56 59 51 54 69 71 69 50 49 44 45 36 33
26 26 25 22 21 15 14 10 12 13 14 12 9 8 4 9 14 22 26 27 31 32 23 29 33 40 36 47 54 65 67 69 66 70 72 59 54 56 52 47 43 38 32
28 26 25 25 19 16 12 6 10 14 13 11 14 13 10 9 12 14 23 29 34 25 22 17 27 32 29 42 58 67 65 66 72 72 65 65 57 54 50 44 41 39 33
28 28 26 25 18 14 11 7 11 10 12 12 15 15 14 14 10 14 21 25 27 22 17 21 19 25 18 36 57 59 72 64 69 66 65 70 59 49 41 42 37 36 31
28 26 28 24 20 15 10 10 13 9 11 12 12 12 19 21 24 21 17 22 28 30 25 23 19 29 23 42 53 67 69 67 78 68 65 67 58 34 28 34 38 37 30
26 26 29 23 17 16 15 14 19 12 12 11 10 6 3 12 21 27 24 25 34 31 31 33 30 32 27 38 46 57 66 71 71 66 62 55 52 28 22 30 36 35 29
Wind_Direction_500mb
228 229 227 226 230 228 236 234 235 242 250 250 243 252 256 257 259 259 258 276 267 273 251 227 225 224 222 221 223 231 236 232 239 241 216 183 215 233 210 221 225 210 215
231 229 232 230 228 230 233 234 237 242 252 254 250 243 251 255 257 251 253 265 269 261 261 220 218 218 219 220 221 225 235 229 219 202 204 187 214 205 189 212 215 212 220
232 234 232 229 229 231 226 229 231 244 253 246 247 248 256 257 251 253 240 240 261 251 238 231 223 222 221 222 228 230 238 230 217 204 210 203 206 193 191 210 208 214 238
228 233 227 227 225 224 230 232 240 246 252 255 257 247 257 251 252 249 245 241 238 231 249 249 240 235 226 222 228 235 235 223 211 205 199 203 196 191 201 201 206 213 229
232 223 225 223 220 219 224 229 239 239 249 264 254 250 257 256 259 250 244 233 223 222 222 245 245 243 228 223 224 230 226 222 209 202 194 197 198 197 203 195 204 210 216
230 227 218 214 218 209 220 227 231 232 248 252 255 258 266 267 266 258 247 237 227 214 216 219 241 246 233 213 210 221 220 218 209 205 194 194 199 205 189 191 196 194 188
218 221 207 214 207 210 213 218 221 233 240 258 271 273 275 271 256 249 247 238 226 215 217 216 220 218 216 201 210 223 219 215 208 205 192 188 189 189 191 191 194 190 186
212 205 195 192 197 200 205 213 213 227 249 259 248 258 273 230 243 240 240 234 229 213 208 210 209 209 196 190 206 217 211 205 204 198 190 188 186 192 195 191 195 182 184
198 189 186 180 195 190 215 210 221 233 240 256 240 240 267 264 214 235 231 225 233 218 203 195 197 205 194 184 190 204 200 196 197 194 192 189 191 193 194 198 194 173 176
184 183 184 188 192 192 214 215 226 238 241 243 240 240 235 253 260 217 229 232 222 213 205 194 197 194 200 177 174 185 191 193 191 191 196 193 194 201 190 186 182 172 182
181 181 186 195 196 196 224 220 229 242 239 228 230 238 236 237 247 247 227 208 206 208 201 195 195 188 197 196 183 198 190 189 193 187 185 186 181 183 182 187 177 181 185
174 185 190 191 201 210 224 232 239 244 217 225 229 229 233 236 241 234 229 200 193 192 191 189 205 196 192 191 191 201 197 197 192 189 182 191 194 182 185 194 185 186 185
175 190 190 199 212 220 224 237 243 220 225 228 229 228 230 237 228 222 206 210 181 154 177 190 190 193 186 183 190 195 198 201 195 188 187 194 176 180 176 192 192 185 182
175 195 195 206 209 215 226 232 224 220 227 224 219 214 218 216 197 212 209 212 184 156 163 165 184 184 180 173 183 186 186 188 188 184 183 185 181 189 181 193 195 178 175
185 184 191 200 210 220 218 218 210 221 214 211 217 223 224 226 200 209 211 228 198 172 166 188 168 188 185 188 184 183 187 191 186 183 180 185 194 174 177 180 175 170 174
171 189 197 208 210 205 203 204 218 216 209 221 221 234 241 226 218 213 217 225 189 225 162 164 174 177 190 189 194 190 189 191 191 184 181 186 179 180 177 185 171 175 169
189 191 198 199 196 194 195 198 201 212 213 214 233 237 232 216 212 217 221 212 236 226 175 166 172 179 181 191 189 191 183 187 181 186 182 177 180 181 181 180 178 176 176
181 185 181 184 183 189 195 194 196 211 213 224 243 228 224 212 201 202 207 209 213 197 164 162 155 166 168 173 176 186 185 179 180 180 182 180 178 187 182 178 184 182 170
165 171 173 177 181 187 188 191 208 213 219 221 221 233 234 208 198 204 212 203 196 178 161 159 161 160 167 169 178 171 170 172 178 180 188 177 177 184 178 189 176 169 172
163 171 172 171 178 177 180 195 211 209 197 188 222 276 233 213 211 195 198 183 180 157 153 148 161 164 158 165 167 163 164 169 164 175 182 180 183 181 174 170 171 168 171
163 166 163 165 173 177 182 199 200 178 170 162 157 147 87 191 185 187 185 181 163 159 159 180 177 158 164 169 171 169 165 166 170 181 168 169 170 165 163 169 168 175 181
166 168 169 166 167 169 184 183 171 163 164 165 163 171 127 115 166 187 188 178 167 177 181 171 174 168 174 179 181 173 170 169 154 168 171 157 166 166 166 167 183 184 188
171 169 169 163 176 178 170 180 182 160 168 182 187 185 169 177 162 171 183 181 178 184 190 172 167 183 172 182 181 174 173 173 167 163 164 163 172 173 175 184 187 190 198
168 168 164 163 166 171 183 208 182 181 175 171 178 192 209 199 179 163 161 159 174 174 177 165 189 177 167 171 181 180 172 171 163 164 172 165 174 179 184 194 200 201 202
169 167 170 172 173 186 201 193 148 190 168 160 167 210 217 225 209 186 175 162 166 161 161 162 174 165 154 170 177 181 171 165 159 166 177 171 175 175 190 206 205 204 212
172 166 175 173 187 196 202 204 171 156 172 178 185 205 218 215 208 195 194 186 173 176 161 155 165 155 156 174 176 176 172 172 166 166 181 184 182 173 192 214 212 214 223
Wind_Speed_850mb
59 52 51 48 44 39 36 32 30 30 28 27 26 28 26 25 25 21 18 24 13 11 14 26 26 27 27 28 27 24 23 23 20 18 33 20 21 30 27 27 26 28 35
56 50 49 48 47 41 38 33 32 29 30 29 28 31 28 28 29 24 20 22 21 13 6 17 22 27 26 25 27 26 21 21 24 21 26 37 29 35 28 28 27 27 32
51 52 45 46 46 44 39 35 31 30 31 30 32 26 27 30 30 33 28 24 21 19 14 10 15 22 30 29 29 26 21 22 27 27 32 37 33 40 30 26 29 29 26
45 47 43 44 43 43 37 34 32 33 31 27 29 24 30 33 35 32 30 29 26 23 18 18 19 22 26 31 32 29 23 24 30 30 38 35 34 31 29 25 26 29 22
37 40 37 38 41 39 37 33 33 34 25 22 26 34 32 35 35 33 36 32 36 29 24 24 21 23 28 32 33 28 26 25 31 34 35 34 33 31 25 26 24 23 18
32 37 34 34 37 34 34 33 37 23 22 23 26 28 31 34 34 34 35 39 36 30 28 23 14 17 23 33 32 27 26 23 31 34 36 29 30 28 31 26 21 21 22
32 34 31 33 30 33 32 34 25 23 23 26 22 24 24 24 29 27 30 31 35 36 32 27 21 21 19 31 31 25 26 25 30 32 35 34 30 33 32 25 25 24 23
32 32 34 28 27 28 32 30 28 22 22 23 16 13 18 15 19 22 22 19 23 29 29 28 24 26 25 22 23 21 26 28 30 31 34 36 30 30 32 27 27 25 27
33 34 34 29 29 29 30 29 27 24 19 26 23 19 11 8 8 10 20 20 23 26 24 30 26 25 30 27 20 16 24 27 27 32 33 36 31 29 30 27 29 30 33
35 37 37 30 28 28 30 27 23 22 21 16 18 22 22 13 7 7 10 15 21 21 24 22 24 29 26 29 23 20 18 25 28 32 32 35 35 29 30 33 30 25 35
35 34 35 33 33 28 31 24 22 21 18 20 19 15 20 16 17 11 8 11 16 19 17 27 24 30 30 27 21 18 16 22 28 31 32 31 35 30 29 30 28 30 27
31 34 32 32 29 29 29 24 24 21 19 21 20 20 15 13 18 16 11 8 16 20 18 20 25 26 31 30 27 30 22 21 30 33 36 38 35 36 22 33 32 34 29
29 35 34 32 28 27 25 23 22 18 19 19 18 17 18 18 13 15 13 7 8 12 14 19 22 24 28 27 31 31 27 27 32 35 35 39 37 45 38 33 37 38 32
27 31 30 26 24 22 21 21 16 17 19 17 19 18 18 18 19 15 11 11 11 10 11 14 18 20 26 29 28 33 32 25 32 35 37 39 44 48 36 32 40 36 36
27 26 25 23 23 20 20 19 17 16 17 19 21 20 21 16 25 21 14 6 9 9 14 14 13 22 22 27 26 33 31 30 31 35 40 44 37 50 36 31 40 43 43
25 24 23 21 20 20 20 19 16 16 19 17 14 19 19 18 34 25 21 17 7 9 10 15 19 19 22 25 28 31 31 34 32 38 43 40 45 45 33 40 49 49 40
22 19 19 19 20 21 21 17 18 20 16 15 15 15 14 17 24 30 26 20 20 15 14 15 19 20 21 26 31 33 32 36 36 40 44 47 41 42 40 47 55 54 51
19 19 20 20 21 20 19 17 18 16 17 13 14 11 15 20 20 28 23 25 22 16 17 21 22 22 23 28 33 35 38 38 42 45 46 41 41 45 51 59 60 36 36
22 20 21 21 20 20 18 18 16 16 13 13 11 11 15 20 24 26 24 22 18 18 22 21 21 28 32 34 33 30 44 46 45 42 42 50 41 39 57 53 37 40 36
23 22 21 20 20 20 19 16 15 14 11 9 7 4 10 17 23 25 21 19 24 25 22 24 27 31 35 37 37 45 48 46 43 46 53 59 46 63 48 41 44 42 32
23 23 23 22 20 18 16 16 14 12 12 11 6 5 5 13 24 26 19 19 30 27 25 18 27 33 42 42 51 55 56 59 51 54 69 71 69 50 49 44 45 36 33
26 26 25 22 21 15 14 10 12 13 14 12 9 8 4 9 14 22 26 27 31 32 23 29 33 40 36 47 54 65 67 69 66 70 72 59 54 56 52 47 43 38 32
28 26 25 25 19 16 12 6 10 14 13 11 14 13 10 9 12 14 23 29 34 25 22 17 27 32 29 42 58 67 65 66 72 72 65 65 57 54 50 44 41 39 33
28 28 26 25 18 14 11 7 11 10 12 12 15 15 14 14 10 14 21 25 27 22 17 21 19 25 18 36 57 59 72 64 69 66 65 70 59 49 41 42 37 36 31
28 26 28 24 20 15 10 10 13 9 11 12 12 12 19 21 24 21 17 22 28 30 25 23 19 29 23 42 53 67 69 67 78 68 65 67 58 34 28 34 38 37 30
26 26 29 23 17 16 15 14 19 12 12 11 10 6 3 12 21 27 24 25 34 31 31 33 30 32 27 38 46 57 66 71 71 66 62 55 52 28 22 30 36 35 29
Wind_Direction_850mb
228 229 227 226 230 228 236 234 235 242 250 250 243 252 256 257 259 259 258 276 267 273 251 227 225 224 222 221 223 231 236 232 239 241 216 183 215 233 210 221 225 210 215
231 229 232 230 228 230 233 234 237 242 252 254 250 243 251 255 257 251 253 265 269 261 261 220 218 218 219 220 221 225 235 229 219 202 204 187 214 205 189 212 215 212 220
232 234 232 229 229 231 226 229 231 244 253 246 247 248 256 257 251 253 240 240 261 251 238 231 223 222 221 222 228 230 238 230 217 204 210 203 206 193 191 210 208 214 238
228 233 227 227 225 224 230 232 240 246 252 255 257 247 257 251 252 249 245 241 238 231 249 249 240 235 226 222 228 235 235 223 211 205 199 203 196 191 201 201 206 213 229
232 223 225 223 220 219 224 229 239 239 249 264 254 250 257 256 259 250 244 233 223 222 222 245 245 243 228 223 224 230 226 222 209 202 194 197 198 197 203 195 204 210 216
230 227 218 214 218 209 220 227 231 232 248 252 255 258 266 267 266 258 247 237 227 214 216 219 241 246 233 213 210 221 220 218 209 205 194 194 199 205 189 191 196 194 188
218 221 207 214 207 210 213 218 221 233 240 258 271 273 275 271 256 249 247 238 226 215 217 216 220 218 216 201 210 223 219 215 208 205 192 188 189 189 191 191 194 190 186
212 205 195 192 197 200 205 213 213 227 249 259 248 258 273 230 243 240 240 234 229 213 208 210 209 209 196 190 206 217 211 205 204 198 190 188 186 192 195 191 195 182 184
198 189 186 180 195 190 215 210 221 233 240 256 240 240 267 264 214 235 231 225 233 218 203 195 197 205 194 184 190 204 200 196 197 194 192 189 191 193 194 198 194 173 176
184 183 184 188 192 192 214 215 226 238 241 243 240 240 235 253 260 217 229 232 222 213 205 194 197 194 200 177 174 185 191 193 191 191 196 193 194 201 190 186 182 172 182
181 181 186 195 196 196 224 220 229 242 239 228 230 238 236 237 247 247 227 208 206 208 201 195 195 188 197 196 183 198 190 189 193 187 185 186 181 183 182 187 177 181 185
174 185 190 191 201 210 224 232 239 244 217 225 229 229 233 236 241 234 229 200 193 192 191 189 205 196 192 191 191 201 197 197 192 189 182 191 194 182 185 194 185 186 185
175 190 190 199 212 220 224 237 243 220 225 228 229 228 230 237 228 222 206 210 181 154 177 190 190 193 186 183 190 195 198 201 195 188 187 194 176 180 176 192 192 185 182
175 195 195 206 209 215 226 232 224 220 227 224 219 214 218 216 197 212 209 212 184 156 163 165 184 184 180 173 183 186 186 188 188 184 183 185 181 189 181 193 195 178 175
185 184 191 200 210 220 218 218 210 221 214 211 217 223 224 226 200 209 211 228 198 172 166 188 168 188 185 188 184 183 187 191 186 183 180 185 194 174 177 180 175 170 174
171 189 197 208 210 205 203 204 218 216 209 221 221 234 241 226 218 213 217 225 189 225 162 164 174 177 190 189 194 190 189 191 191 184 181 186 179 180 177 185 171 175 169
189 191 198 199 196 194 195 198 201 212 213 214 233 237 232 216 212 217 221 212 236 226 175 166 172 179 181 191 189 191 183 187 181 186 182 177 180 181 181 180 178 176 176
181 185 181 184 183 189 195 194 196 211 213 224 243 228 224 212 201 202 207 209 213 197 164 162 155 166 168 173 176 186 185 179 180 180 182 180 178 187 182 178 184 182 170
165 171 173 177 181 187 188 191 208 213 219 221 221 233 234 208 198 204 212 203 196 178 161 159 161 160 167 169 178 171 170 172 178 180 188 177 177 184 178 189 176 169 172
163 171 172 171 178 177 180 195 211 209 197 188 222 276 233 213 211 195 198 183 180 157 153 148 161 164 158 165 167 163 164 169 164 175 182 180 183 181 174 170 171 168 171
163 166 163 165 173 177 182 199 200 178 170 162 157 147 87 191 185 187 185 181 163 159 159 180 177 158 164 169 171 169 165 166 170 181 168 169 170 165 163 169 168 175 181
166 168 169 166 167 169 184 183 171 163 164 165 163 171 127 115 166 187 188 178 167 177 181 171 174 168 174 179 181 173 170 169 154 168 171 157 166 166 166 167 183 184 188
171 169 169 163 176 178 170 180 182 160 168 182 187 185 169 177 162 171 183 181 178 184 190 172 167 183 172 182 181 174 173 173 167 163 164 163 172 173 175 184 187 190 198
168 168 164 163 166 171 183 208 182 181 175 171 178 192 209 199 179 163 161 159 174 174 177 165 189 177 167 171 181 180 172 171 163 164 172 165 174 179 184 194 200 201 202
169 167 170 172 173 186 201 193 148 190 168 160 167 210 217 225 209 186 175 162 166 161 161 162 174 165 154 170 177 181 171 165 159 166 177 171 175 175 190 206 205 204 212
172 166 175 173 187 196 202 204 171 156 172 178 185 205 218 215 208 195 194 186 173 176 161 155 165 155 156 174 176 176 172 172 166 166 181 184 182 173 192 214 212 214 223